Point Lay, AK

4:20 PM AKDT on April 23, 2018 (GMT -0800)
Point Lay

Weather History for PPIZ - December, 2012

Change the Weather History Date:

Sunday, December 23, 2012

  Actual Average Record
Temperature  
Mean Temperature -10 °F -  
Max Temperature -6 °F -2 °F 35 °F (2017)
Min Temperature -13 °F -8 °F -34 °F (2005)
Degree Days  
Heating Degree Days 74    
Moisture  
Dew Point -16 °F    
Average Humidity 77    
Maximum Humidity 84    
Minimum Humidity 70    
Precipitation  
Precipitation 0.00 in - - ()
Sea Level Pressure  
Sea Level Pressure 30.21 in    
Wind  
Wind Speed 14 mph (NE)    
Max Wind Speed 25 mph    
Max Gust Speed -    
Visibility 6 miles    
Events      
Averages and records for this station are not official NWS values.
T = Trace of Precipitation, MM = Missing Value Source: NWS Daily Summary

Daily Weather History Graph

Daily Weather History Graph

Search for Another Location

Airport or City:

Astronomy

Dec. 31, 1969 Rise Set
Actual Time Sun does not set Sun does not set
Civil Twilight 11:41 AM AKST 4:01 PM AKST
Nautical Twilight 9:56 AM AKST 5:46 PM AKST
Astronomical Twilight 8:37 AM AKST 7:05 PM AKST
Moon 12:43 PM AKST (12/23) 7:45 AM AKST (12/23)
Length of Visible Light 4h 19m
Length of Day
0h 00m
Waxing Gibbous, 82% of the Moon is Illuminated
Dec 23
Waxing Gibbous
Dec 28
Full
Jan 4
Last Quarter
Jan 11
New
Jan 18
First Quarter

Hourly Weather History & Observations

Time (AKST) Temp. Windchill Dew Point Humidity Pressure Visibility Wind Dir Wind Speed Gust Speed Precip Events Conditions
12:56 AM -6.0 °F - -10.8 °F 79% 30.29 in 10.0 mi Calm Calm - N/A   Clear
1:56 AM -6.9 °F -25.7 °F -11.9 °F 79% 30.29 in 10.0 mi NE 11.5 mph - N/A   Clear
2:56 AM -8.9 °F -25.0 °F -13.9 °F 79% 30.29 in 10.0 mi NE 8.1 mph - N/A   Clear
3:56 AM -9.9 °F -26.3 °F -15.0 °F 78% 30.28 in 10.0 mi NE 8.1 mph - N/A   Clear
4:56 AM -10.8 °F -30.7 °F -15.9 °F 78% 30.28 in 10.0 mi NNE 11.5 mph - N/A   Clear
5:56 AM -11.9 °F -32.0 °F -17.9 °F 75% 30.28 in 10.0 mi NE 11.5 mph - N/A   Clear
6:56 AM -11.9 °F -33.0 °F -17.9 °F 75% 30.26 in 10.0 mi NE 12.7 mph - N/A   Clear
7:11 AM -13.0 °F -33.4 °F -18.4 °F 77% 30.24 in 10.0 mi NE 11.5 mph - N/A   Scattered Clouds
7:20 AM -11.2 °F -32.1 °F -18.4 °F 70% 30.24 in 10.0 mi NE 12.7 mph - N/A   Mostly Cloudy
7:56 AM -11.9 °F -34.6 °F -17.0 °F 78% 30.26 in 10.0 mi NE 15.0 mph - N/A   Overcast
8:56 AM -11.9 °F -32.0 °F -17.9 °F 75% 30.25 in 10.0 mi NE 11.5 mph - N/A   Mostly Cloudy
9:11 AM -11.2 °F -32.9 °F -18.4 °F 70% 30.22 in 10.0 mi NE 13.8 mph - N/A   Scattered Clouds
9:56 AM -11.9 °F -36.1 °F -17.9 °F 75% 30.23 in 10.0 mi NE 17.3 mph - N/A   Clear
10:56 AM -13.0 °F -37.5 °F -17.9 °F 79% 30.22 in 10.0 mi NE 17.3 mph - N/A   Clear
11:56 AM -13.0 °F -38.2 °F -18.9 °F 75% 30.22 in 10.0 mi NE 18.4 mph - N/A   Clear
12:56 PM -13.0 °F -38.8 °F -18.9 °F 75% 30.23 in 10.0 mi NE 19.6 mph - N/A   Clear
1:56 PM -13.0 °F -38.2 °F -18.9 °F 75% 30.21 in 8.0 mi ENE 18.4 mph - N/A   Clear
2:56 PM -13.0 °F -38.8 °F -18.9 °F 75% 30.20 in 6.0 mi NE 19.6 mph - N/A   Haze
3:42 PM -11.2 °F -37.0 °F -18.4 °F 70% 30.18 in 4.0 mi NE 20.7 mph - N/A   Haze
3:56 PM -11.9 °F -39.6 °F -17.9 °F 75% 30.18 in 4.0 mi NE 24.2 mph - N/A   Haze
4:36 PM -11.2 °F -37.0 °F -16.6 °F 77% 30.17 in 3.0 mi NE 20.7 mph - N/A   Haze
4:56 PM -10.8 °F -36.0 °F -17.0 °F 74% 30.19 in 4.0 mi NE 19.6 mph - N/A   Haze
5:25 PM -9.4 °F -34.1 °F -16.6 °F 71% 30.17 in 2.5 mi ENE 19.6 mph - N/A   Haze
5:56 PM -9.4 °F -33.5 °F -14.8 °F 77% 30.18 in 2.5 mi ENE 18.4 mph - N/A   Haze
6:13 PM -9.4 °F -35.8 °F -14.8 °F 77% 30.17 in 1.5 mi ENE 23.0 mph - N/A   Haze
6:49 PM -9.4 °F -31.4 °F -14.8 °F 77% 30.17 in 2.5 mi ENE 15.0 mph - N/A   Haze
6:56 PM -8.9 °F -30.7 °F -15.0 °F 75% 30.19 in 3.0 mi ENE 15.0 mph - N/A   Haze
7:24 PM -9.4 °F -35.8 °F -14.8 °F 77% 30.17 in 1.8 mi ENE 23.0 mph - N/A   Haze
7:39 PM -9.4 °F -36.8 °F -14.8 °F 77% 30.16 in 1.2 mi NE 25.3 mph - N/A   Haze
7:56 PM -8.9 °F -36.1 °F -13.9 °F 79% 30.18 in 1.8 mi ENE 25.3 mph - N/A   Haze
8:06 PM -9.4 °F -35.8 °F -14.8 °F 77% 30.16 in - ENE 23.0 mph - N/A   Mostly Cloudy
8:56 PM -9.9 °F -36.0 °F -15.9 °F 75% 30.17 in - NE 21.9 mph - N/A   Mostly Cloudy
9:04 PM -9.4 °F -35.8 °F -16.6 °F 71% 30.15 in - NE 23.0 mph - N/A   Clear
9:38 PM -9.4 °F -36.8 °F -14.8 °F 77% 30.15 in - NE 25.3 mph - N/A   Mostly Cloudy
9:56 PM -9.9 °F -36.0 °F -15.0 °F 78% 30.17 in - NE 21.9 mph - N/A   Overcast
10:48 PM -7.6 °F -32.3 °F -13.0 °F 77% 30.16 in 2.0 mi ENE 20.7 mph - N/A   Haze
10:56 PM -6.9 °F -31.4 °F -11.9 °F 79% 30.19 in 1.8 mi ENE 20.7 mph - N/A   Haze
11:08 PM -7.6 °F -31.1 °F -11.2 °F 84% 30.17 in 2.0 mi ENE 18.4 mph - N/A   Haze
11:22 PM -7.6 °F -30.5 °F -11.2 °F 84% 30.18 in 1.8 mi ENE 17.3 mph - N/A   Haze
11:42 PM -7.6 °F -31.7 °F -11.2 °F 84% 30.17 in 1.0 mi ENE 19.6 mph - N/A   Haze
11:56 PM -6.9 °F -33.4 °F -10.8 °F 83% 30.18 in - NE 25.3 mph - N/A   Overcast